Lapse_Rate
6.0 6.1 6.2 6.2 6.2 6.3 6.4 6.6 6.7 6.8 6.8 6.8 6.9 7.1 7.1 7.2 7.2 7.2 7.1 7.0 7.1 7.3 7.3 7.1 7.3 7.2 7.0 6.9 6.8 6.7 6.4 6.2 6.0 6.2 6.0 5.9 5.8 5.8 5.8 5.6 5.1 5.2 5.3
6.1 6.1 6.3 6.5 6.6 6.6 6.8 6.8 6.9 7.0 7.1 7.2 7.2 7.3 7.2 7.1 7.2 7.3 7.2 7.2 7.2 7.2 7.1 7.1 7.0 6.8 6.7 6.6 6.5 6.4 6.2 6.2 6.0 6.1 5.9 5.9 5.9 5.9 5.8 5.9 5.6 5.5 5.4
6.1 6.3 6.4 6.4 6.6 6.7 6.8 6.9 7.0 7.0 7.0 6.9 6.9 6.9 6.9 6.8 6.8 6.8 6.9 6.9 7.0 7.1 7.0 6.9 6.8 6.7 6.6 6.4 6.2 6.2 6.1 6.0 5.9 5.7 5.8 5.8 5.9 6.0 5.9 5.8 5.3 5.0 5.5
6.4 6.4 6.6 6.6 6.6 6.6 6.6 6.6 6.5 6.6 6.6 6.5 6.6 6.6 6.6 6.6 6.6 6.6 6.6 6.6 6.7 6.7 6.6 6.6 6.7 6.6 6.5 6.3 6.2 6.1 6.1 6.1 6.0 6.0 6.0 6.0 6.0 6.0 5.9 5.7 5.4 5.7 6.0
6.7 6.6 6.6 6.5 6.5 6.5 6.5 6.4 6.3 6.3 6.3 6.5 6.6 6.5 6.5 6.4 6.2 6.2 6.3 6.4 6.3 6.3 6.3 6.4 6.3 6.2 6.1 6.1 6.0 5.9 6.1 6.2 6.2 6.2 6.1 6.1 6.1 6.1 5.9 5.9 6.0 6.0 5.8
6.5 6.4 6.5 6.6 6.5 6.5 6.5 6.4 6.2 6.1 6.2 6.1 6.1 6.1 6.1 6.1 6.1 6.0 5.8 5.9 5.9 5.8 5.9 6.1 6.2 6.2 6.1 6.1 6.2 6.2 6.3 6.1 6.2 6.1 6.2 6.3 6.4 6.1 5.8 6.0 5.9 5.9 5.7
6.2 6.2 6.2 6.2 6.1 6.0 6.1 6.2 6.2 6.3 6.4 6.3 6.3 6.2 6.2 6.1 6.0 5.9 5.8 5.8 5.9 6.0 6.0 6.1 6.3 6.4 6.4 6.2 6.2 6.1 6.1 6.2 6.3 6.3 6.6 6.5 6.5 6.1 6.2 5.8 5.7 5.5 5.6
6.4 6.2 6.1 6.0 6.0 5.9 5.9 5.9 5.9 6.0 6.0 6.1 6.2 6.1 6.1 6.0 6.0 6.1 6.1 6.1 6.1 6.3 6.3 6.4 6.4 6.5 6.6 6.6 6.4 6.4 6.4 6.5 6.4 6.5 6.3 6.0 6.1 6.2 5.9 5.7 5.5 5.3 4.0
5.7 5.7 5.7 5.8 5.8 5.8 5.8 5.9 6.0 6.1 6.2 6.1 6.0 6.0 6.1 6.3 6.4 6.6 6.5 6.5 6.4 6.3 6.1 6.0 6.1 6.1 5.9 5.9 5.9 6.1 6.3 6.3 6.2 6.3 6.3 6.0 5.8 5.8 5.9 5.7 5.2 4.5 3.8
5.6 5.6 5.5 5.5 5.6 5.6 5.6 5.5 5.5 5.5 5.6 5.6 5.7 5.8 5.9 6.0 6.0 6.1 6.2 6.2 6.3 6.1 6.0 5.9 6.0 6.1 5.9 5.5 5.4 5.4 5.8 6.0 6.2 6.1 6.0 5.9 5.7 5.2 4.9 4.6 4.3 4.1 4.1
5.2 5.2 5.2 5.1 5.0 5.0 4.9 4.9 5.0 5.1 5.2 5.3 5.3 5.4 5.5 5.6 5.8 5.9 5.9 5.8 5.8 5.9 6.0 6.0 6.0 6.0 6.0 6.0 6.0 5.9 5.7 5.5 5.6 6.0 5.4 5.0 4.5 4.4 4.2 4.3 4.3 4.1 4.3
4.9 4.8 4.8 4.9 5.1 5.0 5.1 5.1 5.1 5.2 5.2 5.3 5.4 5.5 5.6 5.6 5.7 5.8 5.9 6.0 6.1 6.2 6.2 6.1 6.2 6.0 5.9 5.7 5.6 5.4 5.4 5.4 5.3 5.1 4.6 4.5 4.5 4.3 4.3 4.3 4.6 4.8 5.0
5.1 5.2 5.2 5.3 5.3 5.3 5.4 5.4 5.4 5.5 5.5 5.5 5.6 5.6 5.6 5.6 5.6 5.7 5.9 6.0 6.2 6.2 6.0 5.9 5.7 5.6 5.6 5.5 5.4 5.5 5.3 4.8 4.8 4.7 4.5 4.5 4.6 4.6 5.0 5.3 5.4 5.5 5.5
5.2 5.2 5.2 5.2 5.3 5.4 5.4 5.4 5.3 5.4 5.5 5.7 5.8 5.7 5.7 5.6 5.7 6.0 6.2 6.2 6.1 5.8 5.6 5.5 5.4 5.4 5.4 5.1 5.1 5.3 5.1 5.0 4.9 4.8 5.0 5.1 5.2 5.4 5.4 5.4 5.5 5.5 5.6
5.2 5.3 5.3 5.3 5.3 5.3 5.3 5.3 5.3 5.7 5.9 6.0 5.9 5.8 5.8 6.0 6.3 6.5 6.3 6.0 5.6 5.3 5.3 5.3 5.3 5.4 5.3 5.3 5.3 5.0 4.9 5.1 5.3 5.3 5.2 5.3 5.4 5.5 5.6 5.7 5.9 6.0 6.2
5.2 5.2 5.2 5.2 5.2 5.2 5.3 5.4 5.5 5.6 5.9 5.9 5.8 6.0 6.2 6.5 6.6 6.6 6.0 5.6 5.4 5.4 5.2 5.3 5.3 5.3 5.4 5.4 5.5 5.7 5.6 5.6 5.3 5.2 5.2 5.4 5.6 5.8 6.0 6.3 6.5 6.7 6.6
5.0 5.0 5.0 5.0 5.1 5.3 5.3 5.1 5.1 5.5 5.7 6.0 6.3 6.4 6.4 6.5 6.5 6.3 6.0 5.8 5.6 5.5 5.3 5.4 5.8 5.7 5.9 5.9 5.9 5.8 5.7 5.6 5.6 5.6 5.8 5.9 6.1 6.5 6.8 6.9 6.7 6.5 6.2
5.0 4.9 4.8 4.9 5.0 5.1 5.3 5.5 5.5 5.7 6.1 6.3 6.4 6.4 6.4 6.4 6.5 6.4 6.2 6.3 5.9 5.4 5.5 5.8 5.8 6.0 6.0 5.9 6.0 6.0 5.9 6.0 6.0 6.1 6.2 6.5 6.9 7.0 7.0 6.9 6.7 6.5 6.3
5.4 5.2 5.3 5.2 5.3 5.4 5.6 5.8 6.0 6.2 6.4 6.6 6.7 6.6 6.5 6.5 6.5 6.7 6.7 6.5 6.2 6.3 6.0 6.2 6.4 6.4 6.4 6.2 6.2 6.3 6.3 6.5 6.6 6.7 6.8 7.0 7.2 7.2 7.1 6.9 6.6 6.3 6.0
5.7 5.8 5.8 5.8 5.8 5.8 6.0 6.2 6.5 6.7 6.8 6.8 6.8 6.8 6.8 6.8 6.9 6.9 6.7 6.5 6.6 6.5 6.4 6.5 6.6 6.5 6.5 6.5 6.6 6.6 6.8 6.9 7.0 7.1 7.3 7.4 7.3 7.2 7.0 6.7 6.3 6.1 5.9
6.1 6.2 6.4 6.4 6.3 6.3 6.6 6.8 7.0 7.1 7.1 7.0 6.9 6.8 6.8 6.9 6.7 6.9 6.8 6.9 6.7 6.6 6.7 6.8 6.7 6.6 6.7 6.7 6.7 7.0 7.2 7.2 7.4 7.5 7.4 7.3 7.2 7.0 6.7 6.3 6.1 6.0 5.9
6.5 6.6 6.7 6.6 6.7 6.8 7.0 7.3 7.4 7.3 7.2 7.0 7.0 6.9 7.1 6.6 6.6 6.7 7.1 6.9 6.5 6.7 6.9 6.8 6.9 7.0 6.9 6.9 7.3 7.3 7.3 7.4 7.4 7.4 7.3 7.1 6.9 6.6 6.3 6.2 6.0 5.9 5.8
6.8 6.8 6.9 6.9 6.9 7.0 7.2 7.3 7.1 7.1 7.1 7.0 6.9 6.9 6.8 6.6 6.7 7.0 6.9 6.6 6.5 6.6 6.4 6.7 6.8 6.8 7.0 7.4 7.4 7.2 7.3 7.3 7.3 7.2 7.0 6.8 6.5 6.3 6.1 6.0 6.0 5.9 5.9
6.9 6.9 6.9 6.8 6.7 6.9 6.8 6.9 7.1 6.9 6.9 6.8 6.8 7.0 6.7 6.7 6.9 6.6 6.8 6.2 6.7 6.4 6.3 6.6 6.8 7.1 7.3 7.2 7.2 7.3 7.3 7.3 7.2 7.0 6.7 6.4 6.2 6.2 6.2 6.1 6.0 5.9 6.0
6.9 6.9 7.0 6.8 6.9 6.9 6.9 6.8 7.0 7.1 7.0 7.0 6.9 6.7 6.6 6.6 6.5 6.6 6.2 6.4 6.5 6.4 6.6 6.8 6.9 6.9 7.0 7.1 7.2 7.2 7.3 7.2 7.0 6.7 6.4 6.3 6.2 6.2 6.0 6.0 6.0 6.2 6.6
6.0 6.0 6.3 6.7 6.8 6.8 6.8 6.9 7.0 7.0 7.0 6.8 6.7 6.6 6.5 6.5 6.6 6.4 6.1 6.3 6.4 6.5 6.8 6.8 6.9 6.9 6.9 7.0 7.1 7.1 7.0 6.9 6.6 6.4 6.2 6.2 6.0 6.0 6.1 6.1 6.2 6.6 6.5
Wind_Speed
8 6 7 6 6 5 4 4 5 4 4 5 5 7 8 8 8 8 10 11 12 12 10 11 13 12 9 8 8 9 10 9 13 13 5 3 5 7 7 15 17 17 17
7 6 6 6 6 6 6 6 5 6 6 6 5 6 7 8 8 9 11 10 12 13 13 13 13 8 11 11 9 11 11 11 10 18 10 4 7 5 5 6 8 12 12
5 5 6 6 7 8 8 7 6 7 7 7 6 6 7 8 8 9 10 11 12 13 12 12 13 12 11 10 10 10 8 9 10 10 11 1 2 1 1 2 3 5 8
6 7 8 8 9 9 9 9 9 9 8 8 7 6 6 7 8 9 9 11 12 11 12 12 12 10 13 11 10 11 10 8 7 9 9 3 2 2 3 2 3 2 3
7 7 7 7 7 8 9 9 9 8 8 8 9 10 8 7 5 7 8 9 10 11 10 10 11 11 13 13 7 8 8 8 7 7 8 3 4 3 5 4 4 4 2
4 5 5 5 6 6 7 8 8 9 9 9 10 9 10 7 13 14 11 8 8 9 10 9 8 8 10 14 15 15 11 9 10 7 8 7 5 3 3 4 3 4 3
4 4 4 5 5 6 6 7 7 7 8 8 9 9 9 9 16 17 15 7 8 8 8 8 7 5 7 7 10 14 13 16 17 5 8 5 4 6 6 7 6 4 2
3 3 3 4 5 6 6 7 7 6 7 8 9 9 9 8 16 16 14 8 8 9 8 8 7 7 6 5 6 7 6 3 1 1 4 3 3 5 6 4 7 7 4
6 6 6 5 7 7 7 7 7 7 7 7 7 9 9 9 16 16 12 7 8 9 6 5 6 6 8 10 5 5 3 1 4 6 6 7 8 15 14 8 6 6 3
8 9 7 6 6 8 8 8 5 5 8 6 9 8 8 9 14 17 13 6 7 6 4 4 7 7 9 8 4 4 3 2 3 3 4 8 11 13 12 5 6 5 3
6 8 8 7 7 8 8 5 8 9 9 8 9 8 8 7 9 16 16 5 4 4 4 3 3 7 6 4 4 4 4 5 8 6 5 6 7 6 5 8 7 4 3
6 8 9 7 6 7 9 8 7 7 7 8 9 10 6 7 10 12 13 5 6 4 3 2 3 5 5 7 5 9 15 9 4 6 6 5 5 5 6 7 11 12 11
7 8 9 9 6 7 10 10 8 4 6 8 6 8 8 5 4 12 3 4 5 2 2 3 5 6 10 6 12 16 10 5 5 5 4 4 4 5 8 6 13 15 16
9 10 10 10 11 10 7 7 7 7 6 7 7 7 7 5 4 2 2 1 1 1 1 2 6 9 10 10 7 8 5 5 5 5 5 5 4 3 4 3 3 3 3
7 8 9 10 11 12 12 10 8 8 8 8 7 6 6 6 4 5 5 2 2 2 3 4 5 4 6 6 6 6 5 4 4 2 3 4 4 4 3 3 3 2 2
10 8 7 8 9 10 11 12 15 19 20 18 19 13 4 11 11 9 7 8 7 7 3 4 5 5 5 5 6 5 5 5 3 3 3 3 3 4 4 3 2 2 3
8 10 8 8 8 9 9 10 12 10 12 9 13 14 12 11 12 10 9 10 10 7 3 4 4 4 5 5 4 4 3 3 3 4 4 4 5 4 3 4 4 3 3
7 12 8 8 8 8 9 10 9 9 7 3 4 5 9 13 12 12 13 11 4 5 3 4 4 4 4 4 4 4 4 4 4 4 4 3 3 3 3 3 2 3 3
9 9 8 8 8 10 10 10 11 9 6 4 2 2 6 11 8 9 7 3 5 5 4 5 4 4 4 4 4 4 5 4 3 3 3 3 3 3 3 3 4 4 4
9 12 11 9 9 9 8 10 9 8 6 5 4 3 0 1 1 2 3 4 5 5 5 5 4 4 4 4 4 4 4 4 3 3 3 3 3 3 3 3 2 2 1
8 9 12 10 9 9 9 10 9 7 7 6 6 3 6 2 3 3 4 5 5 5 5 5 4 4 4 4 4 4 3 3 3 3 3 2 2 3 2 3 3 3 3
8 9 9 9 9 9 10 10 9 8 7 6 3 3 12 6 5 4 5 6 5 5 4 5 4 4 3 3 3 4 3 3 3 3 3 3 3 3 3 3 2 2 2
9 10 10 9 10 12 10 11 7 6 6 6 6 5 4 6 5 5 6 5 5 5 6 6 4 4 5 5 6 4 4 3 3 4 4 3 3 3 2 2 2 2 2
9 10 10 10 9 9 9 8 4 5 6 6 6 5 5 6 5 6 5 5 5 5 6 6 6 7 7 6 6 6 6 7 7 6 6 3 3 3 2 2 2 2 2
8 9 9 9 8 8 6 1 2 3 5 6 6 5 5 6 5 5 5 4 4 4 6 6 6 7 7 7 6 5 5 5 5 6 6 5 4 5 3 2 2 2 3
8 8 7 6 5 4 1 2 3 4 5 6 5 5 6 5 5 5 4 5 4 4 6 5 6 6 6 5 5 6 7 7 8 8 8 6 3 3 2 3 4 3 3
Wind_Direction
30 29 33 27 26 25 19 354 338 314 306 285 275 277 273 272 268 260 260 259 257 255 243 239 240 238 235 232 221 226 231 231 255 270 274 199 203 215 215 218 225 226 234
12 20 30 21 16 11 3 350 337 326 321 302 301 285 277 270 261 255 260 255 255 255 256 256 249 237 234 239 234 231 228 226 240 263 263 205 212 214 220 208 216 224 225
13 15 21 22 13 4 353 343 340 331 329 325 291 290 291 285 277 265 260 260 255 255 252 250 257 252 245 241 236 240 234 234 236 252 267 130 191 172 158 184 192 192 192
16 15 16 9 2 354 347 348 345 342 330 320 321 301 290 287 279 274 268 267 271 268 268 261 256 243 249 243 236 238 240 235 234 240 251 206 179 183 186 176 185 175 174
12 11 2 352 352 345 345 340 334 330 325 324 325 325 319 308 298 294 279 279 273 273 265 257 258 256 247 246 239 241 233 236 240 237 244 194 186 180 197 178 192 155 93
352 344 330 332 333 330 324 325 323 324 326 326 324 318 316 312 306 302 294 284 274 270 273 265 255 259 262 257 256 251 236 231 236 232 241 234 219 185 154 166 142 151 170
316 304 308 311 305 305 302 300 305 314 314 316 312 312 307 302 304 303 297 282 269 265 267 270 270 254 258 265 270 269 266 251 238 220 237 210 187 181 162 156 170 159 160
279 277 278 313 315 312 312 311 315 311 310 312 308 305 303 298 303 301 291 279 269 260 254 254 254 262 253 255 263 267 263 242 140 164 199 178 184 164 163 142 138 109 75
1 348 341 333 324 319 312 308 304 304 306 292 292 293 291 288 298 299 296 279 276 271 264 262 257 256 258 263 237 245 199 119 126 151 150 156 162 148 134 129 130 132 124
344 329 319 313 311 316 313 312 304 285 297 297 296 284 276 280 290 296 297 276 275 282 274 283 287 274 281 272 235 175 147 116 111 101 104 113 124 128 117 109 138 139 108
314 314 311 312 310 306 306 305 311 312 309 306 299 293 279 275 281 295 293 265 259 269 273 281 277 289 290 287 144 139 130 134 112 94 84 91 90 85 86 93 95 122 124
315 310 305 300 301 301 294 301 288 286 295 297 299 304 285 284 279 288 291 278 279 274 274 264 277 294 138 109 116 136 123 100 93 98 95 95 99 93 79 77 78 70 53
311 301 303 304 290 299 301 303 306 279 286 294 291 297 301 292 282 285 257 271 275 253 254 241 220 126 105 104 114 108 93 96 100 95 93 85 82 105 102 81 77 79 70
303 302 302 299 299 297 289 286 280 285 284 286 289 288 293 290 288 237 214 287 240 232 156 168 119 98 89 88 87 91 97 110 119 126 117 109 109 101 99 97 104 103 84
293 292 291 297 294 296 293 286 273 270 250 279 277 270 283 282 265 217 187 186 171 127 94 99 96 92 93 88 75 68 69 79 89 86 104 105 109 113 93 75 92 90 90
303 301 299 299 297 294 296 297 274 274 281 281 278 274 244 246 255 204 189 181 164 125 75 104 98 92 97 102 98 88 65 64 61 89 93 101 112 101 98 79 77 84 97
276 291 291 287 285 287 289 289 290 296 269 286 293 263 253 239 234 185 173 157 141 118 100 96 100 99 100 93 90 86 101 79 71 78 84 87 95 98 118 112 110 108 103
271 273 274 278 275 278 278 279 277 275 277 259 295 283 236 227 192 187 139 105 87 70 73 91 93 84 78 85 88 94 91 78 74 79 83 85 98 108 104 111 113 123 133
295 287 280 278 274 271 276 275 272 260 233 238 234 60 4 209 152 120 118 117 124 110 101 91 87 92 91 96 97 86 81 79 88 101 87 88 91 107 103 111 103 90 107
285 274 273 278 278 274 267 267 262 245 219 206 217 196 217 359 73 63 69 108 108 111 113 110 103 92 90 89 88 93 97 98 98 98 95 93 85 88 105 117 114 125 99
288 286 277 275 272 270 267 268 255 231 219 205 208 189 189 148 122 120 122 104 113 118 122 120 109 98 94 98 106 112 108 114 110 107 108 96 86 96 99 91 107 96 125
282 280 279 275 276 275 272 272 247 220 208 190 155 180 138 122 116 139 119 109 104 101 108 116 113 114 109 118 125 111 124 122 117 118 118 117 115 113 107 99 106 120 134
289 287 284 282 276 275 274 272 235 206 187 162 140 125 120 115 123 143 126 124 115 113 111 114 123 115 109 106 99 121 139 146 159 154 139 133 123 123 118 138 155 152 164
290 288 287 284 282 277 274 262 219 187 160 142 128 122 121 115 129 134 124 121 118 113 115 125 123 127 133 129 129 131 128 134 140 137 139 137 145 141 151 146 167 173 173
301 298 293 291 291 283 270 217 130 126 127 124 118 116 110 114 133 133 131 129 127 132 143 138 132 142 145 147 153 157 161 170 159 155 159 159 162 165 156 158 172 190 181
326 325 320 318 316 317 324 98 104 109 112 109 112 115 121 136 142 142 144 148 148 147 142 145 156 157 160 170 185 195 197 196 199 201 192 185 171 174 180 197 196 208 197